TimeCDT,TemperatureF,Dew PointF,Humidity,Sea Level PressureIn,VisibilityMPH,Wind Direction,Wind SpeedMPH,Gust SpeedMPH,PrecipitationIn,Events,Conditions,WindDirDegrees,DateUTC
12:54 AM,28.9,27.0,92,29.75,9.0,ESE,9.2,-,N/A,,Clear,120,2013-04-06 05:54:00
1:54 AM,28.0,26.1,92,29.73,7.0,ESE,8.1,-,N/A,,Clear,110,2013-04-06 06:54:00
2:54 AM,28.0,27.0,96,29.73,6.0,ESE,4.6,-,N/A,,Clear,120,2013-04-06 07:54:00
3:54 AM,27.0,26.1,96,29.70,5.0,ESE,5.8,-,N/A,,Scattered Clouds,110,2013-04-06 08:54:00
4:37 AM,24.8,23.0,93,29.63,4.0,East,3.5,-,N/A,,Partly Cloudy,90,2013-04-06 09:37:00
4:54 AM,25.0,24.1,96,29.71,2.5,Calm,Calm,-,N/A,,Scattered Clouds,0,2013-04-06 09:54:00
4:58 AM,24.8,23.0,93,29.64,1.5,Calm,Calm,-,N/A,,Mostly Cloudy,0,2013-04-06 09:58:00
5:45 AM,24.8,24.8,100,29.65,0.8,Calm,Calm,-,N/A,,Overcast,0,2013-04-06 10:45:00
5:52 AM,24.8,24.8,100,29.65,2.0,Calm,Calm,-,N/A,,Overcast,0,2013-04-06 10:52:00
5:54 AM,25.0,24.1,96,29.71,2.0,Calm,Calm,-,N/A,,Overcast,0,2013-04-06 10:54:00
6:02 AM,26.6,24.8,93,29.65,2.5,Calm,Calm,-,N/A,,Overcast,0,2013-04-06 11:02:00
6:14 AM,26.6,26.6,100,29.65,1.2,Calm,Calm,-,N/A,,Overcast,0,2013-04-06 11:14:00
6:26 AM,26.6,24.8,93,29.64,2.0,Calm,Calm,-,N/A,,Overcast,0,2013-04-06 11:26:00
6:34 AM,26.6,24.8,93,29.64,1.0,Calm,Calm,-,N/A,,Mist,0,2013-04-06 11:34:00
6:40 AM,26.6,24.8,93,29.65,0.2,Calm,Calm,-,N/A,Fog,Light Freezing Fog,0,2013-04-06 11:40:00
6:54 AM,25.0,24.1,96,29.72,0.2,Calm,Calm,-,N/A,Fog,Light Freezing Fog,0,2013-04-06 11:54:00
7:54 AM,26.1,25.0,96,29.74,0.2,NNW,5.8,-,N/A,Fog,Light Freezing Fog,340,2013-04-06 12:54:00
8:50 AM,26.6,26.6,100,29.70,0.2,WNW,8.1,-,N/A,Fog,Light Freezing Fog,300,2013-04-06 13:50:00
8:54 AM,27.0,27.0,100,29.77,0.2,WNW,8.1,-,N/A,Fog,Light Freezing Fog,300,2013-04-06 13:54:00
9:49 AM,28.4,28.4,100,29.71,0.5,NW,9.2,-,N/A,Fog,Light Freezing Fog,310,2013-04-06 14:49:00
9:54 AM,30.0,28.9,96,29.78,0.5,NW,9.2,-,N/A,Fog,Light Freezing Fog,320,2013-04-06 14:54:00
10:05 AM,30.2,28.4,93,29.72,0.2,NNW,9.2,-,N/A,Fog,Light Freezing Fog,330,2013-04-06 15:05:00
10:46 AM,30.2,30.2,100,29.72,1.0,North,11.5,-,N/A,,Overcast,350,2013-04-06 15:46:00
10:51 AM,30.2,30.2,100,29.73,3.0,North,12.7,-,N/A,,Overcast,350,2013-04-06 15:51:00
10:54 AM,30.9,30.0,96,29.79,3.0,North,11.5,-,N/A,,Overcast,350,2013-04-06 15:54:00
11:54 AM,30.9,28.9,92,29.83,4.0,NW,11.5,-,N/A,,Overcast,320,2013-04-06 16:54:00
12:14 PM,30.2,28.4,93,29.76,1.8,NNW,15.0,-,N/A,,Overcast,330,2013-04-06 17:14:00
12:25 PM,30.2,30.2,100,29.76,0.5,NW,11.5,-,N/A,Fog,Light Freezing Fog,320,2013-04-06 17:25:00
12:54 PM,30.9,30.0,96,29.84,3.0,NW,12.7,-,N/A,,Overcast,310,2013-04-06 17:54:00
1:08 PM,30.2,30.2,100,29.77,1.8,NW,12.7,-,N/A,,Overcast,320,2013-04-06 18:08:00
1:17 PM,30.2,30.2,100,29.77,2.0,NW,11.5,-,N/A,,Overcast,310,2013-04-06 18:17:00
1:30 PM,32.0,30.2,93,29.78,6.0,NW,11.5,-,N/A,,Overcast,310,2013-04-06 18:30:00
1:41 PM,32.0,30.2,93,29.78,5.0,NW,12.7,-,N/A,,Overcast,310,2013-04-06 18:41:00
1:51 PM,30.2,30.2,100,29.79,1.8,WNW,12.7,-,N/A,,Overcast,300,2013-04-06 18:51:00
1:54 PM,30.9,30.0,96,29.86,1.5,NW,12.7,-,N/A,,Overcast,310,2013-04-06 18:54:00
2:10 PM,32.0,30.2,93,29.79,2.5,WNW,13.8,-,N/A,,Overcast,300,2013-04-06 19:10:00
2:18 PM,32.0,30.2,93,29.79,4.0,NW,11.5,-,N/A,,Overcast,310,2013-04-06 19:18:00
2:28 PM,32.0,30.2,93,29.79,7.0,NW,13.8,-,N/A,,Overcast,310,2013-04-06 19:28:00
2:54 PM,32.0,28.9,88,29.86,9.0,NW,15.0,-,N/A,,Overcast,310,2013-04-06 19:54:00
3:01 PM,32.0,28.4,87,29.79,10.0,NW,16.1,-,N/A,,Overcast,310,2013-04-06 20:01:00
3:12 PM,32.0,28.4,87,29.79,10.0,NW,13.8,-,N/A,,Overcast,310,2013-04-06 20:12:00
3:54 PM,32.0,28.0,85,29.86,10.0,NNW,16.1,-,N/A,,Overcast,330,2013-04-06 20:54:00
4:54 PM,32.0,28.9,88,29.87,9.0,North,11.5,-,N/A,,Overcast,350,2013-04-06 21:54:00
5:54 PM,32.0,28.0,85,29.88,10.0,NNW,10.4,-,N/A,,Overcast,330,2013-04-06 22:54:00
6:19 PM,32.0,28.4,87,29.82,10.0,NNW,10.4,-,N/A,,Overcast,330,2013-04-06 23:19:00
6:43 PM,32.0,28.4,87,29.82,10.0,North,10.4,-,N/A,,Overcast,360,2013-04-06 23:43:00
6:54 PM,32.0,28.0,85,29.90,10.0,North,9.2,-,N/A,,Overcast,350,2013-04-06 23:54:00
7:54 PM,30.9,27.0,85,29.91,10.0,North,6.9,-,N/A,,Overcast,350,2013-04-07 00:54:00
8:08 PM,30.2,26.6,86,29.83,10.0,North,6.9,-,N/A,,Overcast,360,2013-04-07 01:08:00
8:54 PM,30.9,27.0,85,29.91,10.0,NNW,5.8,-,N/A,,Overcast,340,2013-04-07 01:54:00
9:54 PM,30.9,28.0,89,29.92,10.0,North,3.5,-,N/A,,Overcast,350,2013-04-07 02:54:00
10:54 PM,30.9,27.0,85,29.92,10.0,Calm,Calm,-,N/A,,Overcast,0,2013-04-07 03:54:00
11:54 PM,30.9,27.0,85,29.93,10.0,Calm,Calm,-,N/A,,Overcast,0,2013-04-07 04:54:00